Showing default

KINEIS-2D, 62930

Orbit data source: Space-Track

KINEIS-2D, 62930 is a French payload satellite in SSO that was launched on Sat, 08 Feb 2025 UTC via an ELECTRON launch vehicle from the Rocket Lab Launch Complex (RLLC). Payload-class satellites include a variety of spacecraft equipped with specific instruments for various scientific and technological missions. These include communications satellites like Starlink; space stations such as the ISS; scientific satellites like the Hubble; Earth observation satellites from companies like Planet Labs, Umbra, and HawkEye 360; GPS; miniature CubeSats for education and research; and military/defense satellites.

Loading next visibility...
Identifier
62930, 2025-028C
Orbit
SSO
Country
Flag of FRFR
Related business
Manufacturer
KINEIS
Mission
Operational Commercial Communications
Bus & Motor
CUBESAT 16U, Unknown motor
Mass
28 kg wet, 28 kg dry
Launch date (UTC)
2025-02-08 (1 year ago)
Launch vehicle
ELECTRON
Launch site
Rocket Lab Launch Complex (RLLC)
Object type
Payload
Rocket body
Debris
Shape & HBR
Box + 2 Pan + 1 Ant, 1.0 m
Radar Cross Section
0.229 m², Medium (>0.1 m² and < 1m²)

Expand to show TLE details & history
Last TLE update: 15 hours ago

TLE from 15 hours ago
0 KINEIS-2D
1 62930U 25028C   26123.70472100  .00001802  00000-0  27192-3 0  9997
2 62930  97.9316 177.0053 0003070  17.3073 342.8241 14.75543322 66159
Epoch: 2026-05-03T16:54Z
TLE epoch observation values (Epoch: 2026-05-03T16:54:47.894Z)
Latitude
0.00003°
Longitude
61.70129°
Altitude
644.382 km
Speed
7.537 km/s
True Right ascension
11h 48m 01s
True Declination
0° 00' 00"
Sunlit
Object was in full shadow at epoch
Visualization orbit readout
Latitude
Unknown
Longitude
Unknown
Altitude
Unknown
Speed
Unknown
Apparent Right ascension
Unknown
Apparent Declination
Unknown
Sunlit
N/A
Visualization observer readout
Local Sidereal Time
16:12:45
Azimuth
Unknown
Elevation
Unknown
Doppler factor
Unknown
Orbital elements
Apogee altitude
642.63 km
Perigee altitude
638.321 km
Semi-major axis
7,018.612 km
Eccentricity
0.00031
Inclination
97.9316°
RAAN
177.0053°
Arg. of periapsis
17.3073°
True anomaly
342.81371°
Mean anomaly
342.8241°
Eccentric anomaly
342.8189°
Mean motion
3.69119 °/min
Orbital period
97.53 mins
BSTAR
0.00027192
Loading maneuver chart data...
Computing Atmospheric mass density...
Loading historical data...
Loading historical data...
Loading historical data...
Loading historical data...
Loading historical data...
Loading historical data...
Loading historical data...

Documentation

Showing up to 5 results
|